User: anonymous   Login
Location: Fort Wayne
(41.1310°N, 85.1290°W)
Time: 19:48:44
(UTC-05:00)
Language:

Oscar 19 - Orbit

View from above orbital plane
View from above orbital plane
View from above satellite
View from above satellite

Ground track
Ground track

The orbit data is extracted from the following two-line orbital elements,

1 20442U 90005G   14356.37310381  .00000408  00000-0  16588-3 0  1334
2 20442 098.4972 290.4097 0010809 315.2050 044.8260 14.32656269301628
Epoch (UTC): 22 December 2014 08:57:16
Eccentricity: 0.0010809
inclination: 98.4972°
perigee height: 775 km
apogee height: 790 km
right ascension of ascending node: 290.4097°
argument of perigee: 315.2050°
revolutions per day: 14.32656269
mean anomaly at epoch: 44.8260°
orbit number at epoch: 30162

The dashed part of the orbit path shows where the satellite is in the earth's shadow,  

DLR